owner,sensor,date,latitude,longitude,vertical_datum,wind_speed,wind_to_direction,wind_speed_of_gust,qcFlag 
COMPS,ioos:station:USF.COMPS:C10:1,2019-03-01T00:05:00Z,27.1690,-82.9260,3.0,3.4,328.23,4.07,'1111122,1111122,1111122' 
COMPS,ioos:station:USF.COMPS:C10:1,2019-03-01T00:35:00Z,27.1690,-82.9260,3.0,3.06,337.57,3.77,'1111122,1111122,1111122' 
COMPS,ioos:station:USF.COMPS:C10:1,2019-03-01T01:05:00Z,27.1690,-82.9260,3.0,3.34,340.23,3.93,'1111122,1111122,1111122' 
COMPS,ioos:station:USF.COMPS:C10:1,2019-03-01T01:35:00Z,27.1690,-82.9260,3.0,2.03,342.18,2.62,'1111122,1111122,1111122' 
COMPS,ioos:station:USF.COMPS:C10:1,2019-03-01T02:05:00Z,27.1690,-82.9260,3.0,1.57,315.8,2.23,'1111122,1111122,1111122' 
COMPS,ioos:station:USF.COMPS:C10:1,2019-03-01T02:35:00Z,27.1690,-82.9260,3.0,1.3,303.36,1.72,'1111122,1111122,1111122' 
COMPS,ioos:station:USF.COMPS:C10:1,2019-03-01T03:05:00Z,27.1690,-82.9260,3.0,2.24,311.77,2.86,'1111122,1111122,1111122' 
COMPS,ioos:station:USF.COMPS:C10:1,2019-03-01T03:35:00Z,27.1690,-82.9260,3.0,1.77,330.32,2.17,'1111122,1111122,1111122' 
COMPS,ioos:station:USF.COMPS:C10:1,2019-03-01T04:05:00Z,27.1690,-82.9260,3.0,2.55,338.86,3.06,'1111122,1111122,1111122' 
COMPS,ioos:station:USF.COMPS:C10:1,2019-03-01T04:35:00Z,27.1690,-82.9260,3.0,2.37,349.88,2.83,'1111122,1111122,1111122' 
COMPS,ioos:station:USF.COMPS:C10:1,2019-03-01T05:05:00Z,27.1690,-82.9260,3.0,2.43,357.43,2.87,'1111122,1111122,1111122' 
COMPS,ioos:station:USF.COMPS:C10:1,2019-03-01T05:35:00Z,27.1690,-82.9260,3.0,2.15,11.94,2.81,'1111122,1111122,1111122' 
COMPS,ioos:station:USF.COMPS:C10:1,2019-03-01T06:05:00Z,27.1690,-82.9260,3.0,0.88,72.44,1.56,'1111122,1111122,1111122' 
COMPS,ioos:station:USF.COMPS:C10:1,2019-03-01T06:35:00Z,27.1690,-82.9260,3.0,1.57,63.98,1.84,'1111122,1111122,1111122' 
COMPS,ioos:station:USF.COMPS:C10:1,2019-03-01T07:05:00Z,27.1690,-82.9260,3.0,2.26,25.87,2.91,'1111122,1111122,1111122' 
COMPS,ioos:station:USF.COMPS:C10:1,2019-03-01T07:35:00Z,27.1690,-82.9260,3.0,2.1,13.5,2.68,'1111122,1111122,1111122' 
COMPS,ioos:station:USF.COMPS:C10:1,2019-03-01T08:05:00Z,27.1690,-82.9260,3.0,2.35,342.3,2.87,'1111122,1111122,1111122' 
COMPS,ioos:station:USF.COMPS:C10:1,2019-03-01T08:35:00Z,27.1690,-82.9260,3.0,1.93,333.03,2.53,'1111122,1111122,1111122' 
COMPS,ioos:station:USF.COMPS:C10:1,2019-03-01T09:05:00Z,27.1690,-82.9260,3.0,1.53,355.13,2.02,'1111122,1111122,1111122' 
COMPS,ioos:station:USF.COMPS:C10:1,2019-03-01T09:35:00Z,27.1690,-82.9260,3.0,1.79,325.54,2.18,'1111122,1111122,1111122' 
COMPS,ioos:station:USF.COMPS:C10:1,2019-03-01T10:05:00Z,27.1690,-82.9260,3.0,1.22,346.02,1.73,'1111122,1111122,1111122' 
COMPS,ioos:station:USF.COMPS:C10:1,2019-03-01T10:35:00Z,27.1690,-82.9260,3.0,0.47,327.52,0.86,'1111122,1111122,1111122' 
COMPS,ioos:station:USF.COMPS:C10:1,2019-03-01T11:05:00Z,27.1690,-82.9260,3.0,1.09,60.45,1.57,'1111122,1111122,1111122' 
COMPS,ioos:station:USF.COMPS:C10:1,2019-03-01T11:35:00Z,27.1690,-82.9260,3.0,2.34,96.01,3.18,'1111122,1111122,1111122' 
COMPS,ioos:station:USF.COMPS:C10:1,2019-03-01T12:05:00Z,27.1690,-82.9260,3.0,2.79,86.04,3.43,'1111122,1111122,1111122' 
COMPS,ioos:station:USF.COMPS:C10:1,2019-03-01T12:35:00Z,27.1690,-82.9260,3.0,2.47,118.96,2.99,'1111122,1111122,1111122' 
COMPS,ioos:station:USF.COMPS:C10:1,2019-03-01T13:05:00Z,27.1690,-82.9260,3.0,3.78,133.89,4.88,'1111122,1111122,1111122' 
COMPS,ioos:station:USF.COMPS:C10:1,2019-03-01T13:35:00Z,27.1690,-82.9260,3.0,4.82,123.57,5.65,'1111122,1111122,1111122' 
COMPS,ioos:station:USF.COMPS:C10:1,2019-03-01T14:05:00Z,27.1690,-82.9260,3.0,4.47,103.21,5.21,'1111122,1111122,1111122' 
COMPS,ioos:station:USF.COMPS:C10:1,2019-03-01T14:35:00Z,27.1690,-82.9260,3.0,3.33,97.58,3.97,'1111122,1111122,1111122' 
COMPS,ioos:station:USF.COMPS:C10:1,2019-03-01T15:05:00Z,27.1690,-82.9260,3.0,2.39,106.4,3.23,'1111122,1111122,1111122' 
COMPS,ioos:station:USF.COMPS:C10:1,2019-03-01T15:35:00Z,27.1690,-82.9260,3.0,2.02,85.81,2.52,'1111122,1111122,1111122' 
COMPS,ioos:station:USF.COMPS:C10:1,2019-03-01T16:05:00Z,27.1690,-82.9260,3.0,3.13,118.59,4.01,'1111122,1111122,1111122' 
COMPS,ioos:station:USF.COMPS:C10:1,2019-03-01T16:35:00Z,27.1690,-82.9260,3.0,4.36,134.78,5.18,'1111122,1111122,1111122' 
COMPS,ioos:station:USF.COMPS:C10:1,2019-03-01T17:05:00Z,27.1690,-82.9260,3.0,4.67,147.65,5.34,'1111122,1111122,1111122' 
COMPS,ioos:station:USF.COMPS:C10:1,2019-03-01T17:35:00Z,27.1690,-82.9260,3.0,4.2,162.86,5.23,'1111122,1111122,1111122' 
COMPS,ioos:station:USF.COMPS:C10:1,2019-03-01T18:05:00Z,27.1690,-82.9260,3.0,4.12,167.12,5.01,'1111122,1111122,1111122' 
COMPS,ioos:station:USF.COMPS:C10:1,2019-03-01T18:35:00Z,27.1690,-82.9260,3.0,3.54,178.72,4.65,'1111122,1111122,1111122' 
COMPS,ioos:station:USF.COMPS:C10:1,2019-03-01T19:05:00Z,27.1690,-82.9260,3.0,5.17,171.68,6.16,'1111122,1111122,1111122' 
COMPS,ioos:station:USF.COMPS:C10:1,2019-03-01T19:35:00Z,27.1690,-82.9260,3.0,4.7,175.29,5.75,'1111122,1111122,1111122' 
COMPS,ioos:station:USF.COMPS:C10:1,2019-03-01T20:05:00Z,27.1690,-82.9260,3.0,3.04,175.25,4.16,'1111122,1111122,1111122' 
COMPS,ioos:station:USF.COMPS:C10:1,2019-03-01T20:35:00Z,27.1690,-82.9260,3.0,3.58,165.87,4.42,'1111122,1111122,1111122' 
COMPS,ioos:station:USF.COMPS:C10:1,2019-03-01T21:05:00Z,27.1690,-82.9260,3.0,3.47,166.37,4.32,'1111122,1111122,1111122' 
COMPS,ioos:station:USF.COMPS:C10:1,2019-03-01T21:35:00Z,27.1690,-82.9260,3.0,3.97,171.74,4.6,'1111122,1111122,1111122' 
COMPS,ioos:station:USF.COMPS:C10:1,2019-03-01T22:05:00Z,27.1690,-82.9260,3.0,1.41,164.66,3.17,'1111122,1111122,1111122' 
COMPS,ioos:station:USF.COMPS:C10:1,2019-03-01T22:35:00Z,27.1690,-82.9260,3.0,1.19,353.2,1.68,'1111122,1111122,1111122' 
COMPS,ioos:station:USF.COMPS:C10:1,2019-03-01T23:05:00Z,27.1690,-82.9260,3.0,1.75,340.29,2.92,'1111122,1111122,1111122' 
COMPS,ioos:station:USF.COMPS:C10:1,2019-03-01T23:35:00Z,27.1690,-82.9260,3.0,2.51,345.72,3.15,'1111122,1111122,1111122' 
COMPS,ioos:station:USF.COMPS:C10:1,2019-03-02T00:05:00Z,27.1690,-82.9260,3.0,0.56,56.78,1.76,'1111122,1111122,1111122' 
COMPS,ioos:station:USF.COMPS:C10:1,2019-03-02T00:35:00Z,27.1690,-82.9260,3.0,2.29,355.53,3.26,'1111122,1111122,1111122' 
COMPS,ioos:station:USF.COMPS:C10:1,2019-03-02T01:05:00Z,27.1690,-82.9260,3.0,2.84,350.44,3.59,'1111122,1111122,1111122' 
COMPS,ioos:station:USF.COMPS:C10:1,2019-03-02T01:35:00Z,27.1690,-82.9260,3.0,2.32,356.07,2.98,'1111122,1111122,1111122' 
COMPS,ioos:station:USF.COMPS:C10:1,2019-03-02T02:05:00Z,27.1690,-82.9260,3.0,1.99,1.96,2.59,'1111122,1111122,1111122' 
COMPS,ioos:station:USF.COMPS:C10:1,2019-03-02T02:35:00Z,27.1690,-82.9260,3.0,2.5,353.86,3.02,'1111122,1111122,1111122' 
COMPS,ioos:station:USF.COMPS:C10:1,2019-03-02T03:05:00Z,27.1690,-82.9260,3.0,1.74,16.37,2.2,'1111122,1111122,1111122' 
COMPS,ioos:station:USF.COMPS:C10:1,2019-03-02T03:35:00Z,27.1690,-82.9260,3.0,1.08,108.16,1.37,'1111122,1111122,1111122' 
COMPS,ioos:station:USF.COMPS:C10:1,2019-03-02T04:05:00Z,27.1690,-82.9260,3.0,0.53,115.23,0.92,'1111122,1111122,1111122' 
COMPS,ioos:station:USF.COMPS:C10:1,2019-03-02T04:35:00Z,27.1690,-82.9260,3.0,0.47,169.67,0.65,'1111122,1111122,1111122' 
COMPS,ioos:station:USF.COMPS:C10:1,2019-03-02T05:05:00Z,27.1690,-82.9260,3.0,0.95,222.82,1.38,'1111122,1111122,1111122' 
COMPS,ioos:station:USF.COMPS:C10:1,2019-03-02T05:35:00Z,27.1690,-82.9260,3.0,1.84,196.96,2.31,'1111122,1111122,1111122' 
COMPS,ioos:station:USF.COMPS:C10:1,2019-03-02T06:05:00Z,27.1690,-82.9260,3.0,1.65,184.36,2.11,'1111122,1111122,1111122' 
COMPS,ioos:station:USF.COMPS:C10:1,2019-03-02T06:35:00Z,27.1690,-82.9260,3.0,1.72,196.16,1.98,'1111122,1111122,1111122' 
COMPS,ioos:station:USF.COMPS:C10:1,2019-03-02T07:05:00Z,27.1690,-82.9260,3.0,1.12,226.03,1.69,'1111122,1111122,1111122' 
COMPS,ioos:station:USF.COMPS:C10:1,2019-03-02T07:35:00Z,27.1690,-82.9260,3.0,1.73,158.03,2.08,'1111122,1111122,1111122' 
COMPS,ioos:station:USF.COMPS:C10:1,2019-03-02T08:05:00Z,27.1690,-82.9260,3.0,1.2,80.67,1.58,'1111122,1111122,1111122' 
COMPS,ioos:station:USF.COMPS:C10:1,2019-03-02T08:35:00Z,27.1690,-82.9260,3.0,1.18,89.92,1.52,'1111122,1111122,1111122' 
COMPS,ioos:station:USF.COMPS:C10:1,2019-03-02T09:05:00Z,27.1690,-82.9260,3.0,3.18,123.84,3.58,'1111122,1111122,1111122' 
COMPS,ioos:station:USF.COMPS:C10:1,2019-03-02T09:35:00Z,27.1690,-82.9260,3.0,2.26,125.91,2.97,'1111122,1111122,1111122' 
COMPS,ioos:station:USF.COMPS:C10:1,2019-03-02T10:05:00Z,27.1690,-82.9260,3.0,2.03,146.24,2.46,'1111122,1111122,1111122' 
COMPS,ioos:station:USF.COMPS:C10:1,2019-03-02T10:35:00Z,27.1690,-82.9260,3.0,1.86,205.01,2.45,'1111122,1111122,1111122' 
COMPS,ioos:station:USF.COMPS:C10:1,2019-03-02T11:05:00Z,27.1690,-82.9260,3.0,1.94,179.53,2.72,'1111122,1111122,1111122' 
COMPS,ioos:station:USF.COMPS:C10:1,2019-03-02T11:35:00Z,27.1690,-82.9260,3.0,1.56,147.08,2.41,'1111122,1111122,1111122' 
COMPS,ioos:station:USF.COMPS:C10:1,2019-03-02T12:05:00Z,27.1690,-82.9260,3.0,2.46,122.56,3.16,'1111122,1111122,1111122' 
COMPS,ioos:station:USF.COMPS:C10:1,2019-03-02T12:35:00Z,27.1690,-82.9260,3.0,1.1,147.41,2.28,'1111122,1111122,1111122' 
COMPS,ioos:station:USF.COMPS:C10:1,2019-03-02T13:05:00Z,27.1690,-82.9260,3.0,2.4,143.04,3.05,'1111122,1111122,1111122' 
COMPS,ioos:station:USF.COMPS:C10:1,2019-03-02T13:35:00Z,27.1690,-82.9260,3.0,2.2,153.99,2.99,'1111122,1111122,1111122' 
COMPS,ioos:station:USF.COMPS:C10:1,2019-03-02T14:05:00Z,27.1690,-82.9260,3.0,1.38,159.71,2.55,'1111122,1111122,1111122' 
COMPS,ioos:station:USF.COMPS:C10:1,2019-03-02T14:35:00Z,27.1690,-82.9260,3.0,3.69,170.36,4.6,'1111122,1111122,1111122' 
COMPS,ioos:station:USF.COMPS:C10:1,2019-03-02T15:05:00Z,27.1690,-82.9260,3.0,1.82,166.56,2.97,'1111122,1111122,1111122' 
COMPS,ioos:station:USF.COMPS:C10:1,2019-03-02T15:35:00Z,27.1690,-82.9260,3.0,3.36,151.86,4.28,'1111122,1111122,1111122' 
COMPS,ioos:station:USF.COMPS:C10:1,2019-03-02T16:05:00Z,27.1690,-82.9260,3.0,3.94,155.41,4.96,'1111122,1111122,1111122' 
COMPS,ioos:station:USF.COMPS:C10:1,2019-03-02T16:35:00Z,27.1690,-82.9260,3.0,4.45,174.42,5.53,'1111122,1111122,1111122' 
COMPS,ioos:station:USF.COMPS:C10:1,2019-03-02T17:05:00Z,27.1690,-82.9260,3.0,3.95,188.65,5.32,'1111122,1111122,1111122' 
COMPS,ioos:station:USF.COMPS:C10:1,2019-03-02T17:35:00Z,27.1690,-82.9260,3.0,3.67,179.19,4.84,'1111122,1111122,1111122' 
COMPS,ioos:station:USF.COMPS:C10:1,2019-03-02T18:05:00Z,27.1690,-82.9260,3.0,4.05,182.63,5.37,'1111122,1111122,1111122' 
COMPS,ioos:station:USF.COMPS:C10:1,2019-03-02T18:35:00Z,27.1690,-82.9260,3.0,3.41,199.49,4.11,'1111122,1111122,1111122' 
COMPS,ioos:station:USF.COMPS:C10:1,2019-03-02T19:05:00Z,27.1690,-82.9260,3.0,4.16,193.39,4.82,'1111122,1111122,1111122' 
COMPS,ioos:station:USF.COMPS:C10:1,2019-03-02T19:35:00Z,27.1690,-82.9260,3.0,4.15,188.6,4.78,'1111122,1111122,1111122' 
COMPS,ioos:station:USF.COMPS:C10:1,2019-03-02T20:05:00Z,27.1690,-82.9260,3.0,3.67,204.72,4.43,'1111122,1111122,1111122' 
COMPS,ioos:station:USF.COMPS:C10:1,2019-03-02T20:35:00Z,27.1690,-82.9260,3.0,2.84,207.28,3.4,'1111122,1111122,1111122' 
COMPS,ioos:station:USF.COMPS:C10:1,2019-03-02T21:05:00Z,27.1690,-82.9260,3.0,2.2,217.27,2.63,'1111122,1111122,1111122' 
COMPS,ioos:station:USF.COMPS:C10:1,2019-03-02T21:35:00Z,27.1690,-82.9260,3.0,1.83,220.44,2.49,'1111122,1111122,1111122' 
COMPS,ioos:station:USF.COMPS:C10:1,2019-03-02T22:05:00Z,27.1690,-82.9260,3.0,2.45,220.67,2.88,'1111122,1111122,1111122' 
COMPS,ioos:station:USF.COMPS:C10:1,2019-03-02T22:35:00Z,27.1690,-82.9260,3.0,2.71,211.46,3.2,'1111122,1111122,1111122' 
COMPS,ioos:station:USF.COMPS:C10:1,2019-03-02T23:05:00Z,27.1690,-82.9260,3.0,1.98,204.94,2.49,'1111122,1111122,1111122' 
COMPS,ioos:station:USF.COMPS:C10:1,2019-03-02T23:35:00Z,27.1690,-82.9260,3.0,1.39,225.99,1.9,'1111122,1111122,1111122' 
COMPS,ioos:station:USF.COMPS:C10:1,2019-03-03T00:05:00Z,27.1690,-82.9260,3.0,0.65,237.63,1.19,'1111122,1111122,1111122' 
COMPS,ioos:station:USF.COMPS:C10:1,2019-03-03T00:35:00Z,27.1690,-82.9260,3.0,0.66,334.75,0.96,'1111122,1111122,1111122' 
COMPS,ioos:station:USF.COMPS:C10:1,2019-03-03T01:05:00Z,27.1690,-82.9260,3.0,0.65,337.03,0.91,'1111122,1111122,1111122' 
COMPS,ioos:station:USF.COMPS:C10:1,2019-03-03T01:35:00Z,27.1690,-82.9260,3.0,1.61,312.51,1.94,'1111122,1111122,1111122' 
COMPS,ioos:station:USF.COMPS:C10:1,2019-03-03T02:05:00Z,27.1690,-82.9260,3.0,1.57,339.51,2.17,'1111122,1111122,1111122' 
COMPS,ioos:station:USF.COMPS:C10:1,2019-03-03T02:35:00Z,27.1690,-82.9260,3.0,0.52,330.45,1.18,'1111122,1111122,1111122' 
COMPS,ioos:station:USF.COMPS:C10:1,2019-03-03T03:05:00Z,27.1690,-82.9260,3.0,1.26,313.31,1.51,'1111122,1111122,1111122' 
COMPS,ioos:station:USF.COMPS:C10:1,2019-03-03T03:35:00Z,27.1690,-82.9260,3.0,1.87,329.31,2.31,'1111122,1111122,1111122' 
COMPS,ioos:station:USF.COMPS:C10:1,2019-03-03T04:05:00Z,27.1690,-82.9260,3.0,1.83,333.04,2.35,'1111122,1111122,1111122' 
COMPS,ioos:station:USF.COMPS:C10:1,2019-03-03T04:35:00Z,27.1690,-82.9260,3.0,1.61,337.97,1.92,'1111122,1111122,1111122' 
COMPS,ioos:station:USF.COMPS:C10:1,2019-03-03T05:05:00Z,27.1690,-82.9260,3.0,0.93,319.52,1.41,'1111122,1111122,1111122' 
COMPS,ioos:station:USF.COMPS:C10:1,2019-03-03T05:35:00Z,27.1690,-82.9260,3.0,0.77,307.72,1.06,'1111122,1111122,1111122' 
COMPS,ioos:station:USF.COMPS:C10:1,2019-03-03T06:05:00Z,27.1690,-82.9260,3.0,1.23,319.45,1.68,'1111122,1111122,1111122' 
COMPS,ioos:station:USF.COMPS:C10:1,2019-03-03T06:35:00Z,27.1690,-82.9260,3.0,0.99,321.48,1.22,'1111122,1111122,1111122' 
COMPS,ioos:station:USF.COMPS:C10:1,2019-03-03T07:05:00Z,27.1690,-82.9260,3.0,0.95,327.48,1.23,'1111122,1111122,1111122' 
COMPS,ioos:station:USF.COMPS:C10:1,2019-03-03T07:35:00Z,27.1690,-82.9260,3.0,0.64,49.37,1.01,'1111122,1111122,1111122' 
COMPS,ioos:station:USF.COMPS:C10:1,2019-03-03T08:05:00Z,27.1690,-82.9260,3.0,1.46,125.11,2.0,'1111122,1111122,1111122' 
COMPS,ioos:station:USF.COMPS:C10:1,2019-03-03T08:35:00Z,27.1690,-82.9260,3.0,1.04,113.18,1.34,'1111122,1111122,1111122' 
COMPS,ioos:station:USF.COMPS:C10:1,2019-03-03T09:05:00Z,27.1690,-82.9260,3.0,1.36,131.22,1.69,'1111122,1111122,1111122' 
COMPS,ioos:station:USF.COMPS:C10:1,2019-03-03T09:35:00Z,27.1690,-82.9260,3.0,1.86,154.55,2.25,'1111122,1111122,1111122' 
COMPS,ioos:station:USF.COMPS:C10:1,2019-03-03T10:05:00Z,27.1690,-82.9260,3.0,1.72,152.87,2.03,'1111122,1111122,1111122' 
COMPS,ioos:station:USF.COMPS:C10:1,2019-03-03T10:35:00Z,27.1690,-82.9260,3.0,2.72,152.0,3.22,'1111122,1111122,1111122' 
COMPS,ioos:station:USF.COMPS:C10:1,2019-03-03T11:05:00Z,27.1690,-82.9260,3.0,2.39,145.04,3.17,'1111122,1111122,1111122' 
COMPS,ioos:station:USF.COMPS:C10:1,2019-03-03T11:35:00Z,27.1690,-82.9260,3.0,1.96,186.04,2.63,'1111122,1111122,1111122' 
COMPS,ioos:station:USF.COMPS:C10:1,2019-03-03T12:05:00Z,27.1690,-82.9260,3.0,2.31,194.9,2.96,'1111122,1111122,1111122' 
COMPS,ioos:station:USF.COMPS:C10:1,2019-03-03T12:35:00Z,27.1690,-82.9260,3.0,2.09,234.44,2.73,'1111122,1111122,1111122' 
COMPS,ioos:station:USF.COMPS:C10:1,2019-03-03T13:05:00Z,27.1690,-82.9260,3.0,1.75,220.94,2.16,'1111122,1111122,1111122' 
COMPS,ioos:station:USF.COMPS:C10:1,2019-03-03T13:35:00Z,27.1690,-82.9260,3.0,1.69,217.93,2.28,'1111122,1111122,1111122' 
COMPS,ioos:station:USF.COMPS:C10:1,2019-03-03T14:05:00Z,27.1690,-82.9260,3.0,1.89,200.48,2.35,'1111122,1111122,1111122' 
COMPS,ioos:station:USF.COMPS:C10:1,2019-03-03T14:35:00Z,27.1690,-82.9260,3.0,2.86,175.28,3.54,'1111122,1111122,1111122' 
COMPS,ioos:station:USF.COMPS:C10:1,2019-03-03T15:05:00Z,27.1690,-82.9260,3.0,3.7,161.19,4.38,'1111122,1111122,1111122' 
COMPS,ioos:station:USF.COMPS:C10:1,2019-03-03T15:35:00Z,27.1690,-82.9260,3.0,4.98,148.81,5.57,'1111122,1111122,1111122' 
COMPS,ioos:station:USF.COMPS:C10:1,2019-03-03T16:05:00Z,27.1690,-82.9260,3.0,4.09,151.89,4.76,'1111122,1111122,1111122' 
COMPS,ioos:station:USF.COMPS:C10:1,2019-03-03T16:35:00Z,27.1690,-82.9260,3.0,4.69,153.28,5.51,'1111122,1111122,1111122' 
COMPS,ioos:station:USF.COMPS:C10:1,2019-03-03T17:05:00Z,27.1690,-82.9260,3.0,3.98,155.16,4.81,'1111122,1111122,1111122' 
COMPS,ioos:station:USF.COMPS:C10:1,2019-03-03T17:35:00Z,27.1690,-82.9260,3.0,4.19,162.28,4.84,'1111122,1111122,1111122' 
COMPS,ioos:station:USF.COMPS:C10:1,2019-03-03T18:05:00Z,27.1690,-82.9260,3.0,3.72,169.33,4.39,'1111122,1111122,1111122' 
COMPS,ioos:station:USF.COMPS:C10:1,2019-03-03T18:35:00Z,27.1690,-82.9260,3.0,3.57,184.67,4.45,'1111122,1111122,1111122' 
COMPS,ioos:station:USF.COMPS:C10:1,2019-03-03T19:05:00Z,27.1690,-82.9260,3.0,4.11,182.46,4.65,'1111122,1111122,1111122' 
COMPS,ioos:station:USF.COMPS:C10:1,2019-03-03T19:35:00Z,27.1690,-82.9260,3.0,4.38,186.59,5.02,'1111122,1111122,1111122' 
COMPS,ioos:station:USF.COMPS:C10:1,2019-03-03T20:05:00Z,27.1690,-82.9260,3.0,4.35,185.68,5.01,'1111122,1111122,1111122' 
COMPS,ioos:station:USF.COMPS:C10:1,2019-03-03T20:35:00Z,27.1690,-82.9260,3.0,4.63,182.47,5.52,'1111122,1111122,1111122' 
COMPS,ioos:station:USF.COMPS:C10:1,2019-03-03T21:05:00Z,27.1690,-82.9260,3.0,4.62,182.05,5.31,'1111122,1111122,1111122' 
COMPS,ioos:station:USF.COMPS:C10:1,2019-03-03T21:35:00Z,27.1690,-82.9260,3.0,4.66,195.06,5.52,'1111122,1111122,1111122' 
COMPS,ioos:station:USF.COMPS:C10:1,2019-03-03T22:05:00Z,27.1690,-82.9260,3.0,4.27,207.25,5.09,'1111122,1111122,1111122' 
COMPS,ioos:station:USF.COMPS:C10:1,2019-03-03T22:35:00Z,27.1690,-82.9260,3.0,4.14,198.22,5.19,'1111122,1111122,1111122' 
COMPS,ioos:station:USF.COMPS:C10:1,2019-03-03T23:05:00Z,27.1690,-82.9260,3.0,3.77,201.81,4.34,'1111122,1111122,1111122' 
COMPS,ioos:station:USF.COMPS:C10:1,2019-03-03T23:35:00Z,27.1690,-82.9260,3.0,3.88,203.14,4.44,'1111122,1111122,1111122' 
COMPS,ioos:station:USF.COMPS:C10:1,2019-03-04T00:05:00Z,27.1690,-82.9260,3.0,3.58,202.62,4.2,'1111122,1111122,1111122' 
COMPS,ioos:station:USF.COMPS:C10:1,2019-03-04T00:35:00Z,27.1690,-82.9260,3.0,3.7,203.7,4.28,'1111122,1111122,1111122' 
COMPS,ioos:station:USF.COMPS:C10:1,2019-03-04T01:05:00Z,27.1690,-82.9260,3.0,3.47,214.18,4.1,'1111122,1111122,1111122' 
COMPS,ioos:station:USF.COMPS:C10:1,2019-03-04T01:35:00Z,27.1690,-82.9260,3.0,3.4,210.28,4.1,'1111122,1111122,1111122' 
COMPS,ioos:station:USF.COMPS:C10:1,2019-03-04T02:05:00Z,27.1690,-82.9260,3.0,3.15,204.31,3.67,'1111122,1111122,1111122' 
COMPS,ioos:station:USF.COMPS:C10:1,2019-03-04T02:35:00Z,27.1690,-82.9260,3.0,3.8,196.04,4.51,'1111122,1111122,1111122' 
COMPS,ioos:station:USF.COMPS:C10:1,2019-03-04T03:05:00Z,27.1690,-82.9260,3.0,4.55,197.7,5.28,'1111122,1111122,1111122' 
COMPS,ioos:station:USF.COMPS:C10:1,2019-03-04T03:35:00Z,27.1690,-82.9260,3.0,4.37,203.63,5.27,'1111122,1111122,1111122' 
COMPS,ioos:station:USF.COMPS:C10:1,2019-03-04T04:05:00Z,27.1690,-82.9260,3.0,4.4,204.51,5.11,'1111122,1111122,1111122' 
COMPS,ioos:station:USF.COMPS:C10:1,2019-03-04T04:35:00Z,27.1690,-82.9260,3.0,5.05,211.17,5.86,'1111122,1111122,1111122' 
COMPS,ioos:station:USF.COMPS:C10:1,2019-03-04T05:05:00Z,27.1690,-82.9260,3.0,5.29,212.61,6.46,'1111122,1111122,1111122' 
COMPS,ioos:station:USF.COMPS:C10:1,2019-03-04T05:35:00Z,27.1690,-82.9260,3.0,5.32,208.03,6.25,'1111122,1111122,1111122' 
COMPS,ioos:station:USF.COMPS:C10:1,2019-03-04T06:05:00Z,27.1690,-82.9260,3.0,5.78,201.33,6.86,'1111122,1111122,1111122' 
COMPS,ioos:station:USF.COMPS:C10:1,2019-03-04T06:35:00Z,27.1690,-82.9260,3.0,5.69,206.49,6.94,'1111122,1111122,1111122' 
COMPS,ioos:station:USF.COMPS:C10:1,2019-03-04T07:05:00Z,27.1690,-82.9260,3.0,5.65,206.2,6.69,'1111122,1111122,1111122' 
COMPS,ioos:station:USF.COMPS:C10:1,2019-03-04T07:35:00Z,27.1690,-82.9260,3.0,5.56,214.15,6.55,'1111122,1111122,1111122' 
COMPS,ioos:station:USF.COMPS:C10:1,2019-03-04T08:05:00Z,27.1690,-82.9260,3.0,5.58,217.14,6.59,'1111122,1111122,1111122' 
COMPS,ioos:station:USF.COMPS:C10:1,2019-03-04T08:35:00Z,27.1690,-82.9260,3.0,5.86,212.23,7.0,'1111122,1111122,1111122' 
COMPS,ioos:station:USF.COMPS:C10:1,2019-03-04T09:05:00Z,27.1690,-82.9260,3.0,6.04,210.77,7.49,'1111122,1111122,1111122' 
COMPS,ioos:station:USF.COMPS:C10:1,2019-03-04T09:35:00Z,27.1690,-82.9260,3.0,6.33,213.58,7.57,'1111122,1111122,1111122' 
COMPS,ioos:station:USF.COMPS:C10:1,2019-03-04T10:05:00Z,27.1690,-82.9260,3.0,5.87,217.13,7.37,'1111122,1111122,1111122' 
COMPS,ioos:station:USF.COMPS:C10:1,2019-03-04T10:35:00Z,27.1690,-82.9260,3.0,5.71,215.6,6.71,'1111122,1111122,1111122' 
COMPS,ioos:station:USF.COMPS:C10:1,2019-03-04T11:05:00Z,27.1690,-82.9260,3.0,5.34,210.19,6.31,'1111122,1111122,1111122' 
COMPS,ioos:station:USF.COMPS:C10:1,2019-03-04T11:35:00Z,27.1690,-82.9260,3.0,5.17,211.51,6.6,'1111122,1111122,1111122' 
COMPS,ioos:station:USF.COMPS:C10:1,2019-03-04T12:05:00Z,27.1690,-82.9260,3.0,4.76,205.85,5.75,'1111122,1111122,1111122' 
COMPS,ioos:station:USF.COMPS:C10:1,2019-03-04T12:35:00Z,27.1690,-82.9260,3.0,5.13,204.6,6.29,'1111122,1111122,1111122' 
COMPS,ioos:station:USF.COMPS:C10:1,2019-03-04T13:05:00Z,27.1690,-82.9260,3.0,5.15,207.99,6.1,'1111122,1111122,1111122' 
COMPS,ioos:station:USF.COMPS:C10:1,2019-03-04T13:35:00Z,27.1690,-82.9260,3.0,5.3,203.84,6.21,'1111122,1111122,1111122' 
COMPS,ioos:station:USF.COMPS:C10:1,2019-03-04T14:05:00Z,27.1690,-82.9260,3.0,4.87,207.38,5.9,'1111122,1111122,1111122' 
COMPS,ioos:station:USF.COMPS:C10:1,2019-03-04T14:35:00Z,27.1690,-82.9260,3.0,4.87,224.2,6.17,'1111122,1111122,1111122' 
COMPS,ioos:station:USF.COMPS:C10:1,2019-03-04T15:05:00Z,27.1690,-82.9260,3.0,4.91,222.69,6.63,'1111122,1111122,1111122' 
COMPS,ioos:station:USF.COMPS:C10:1,2019-03-04T15:35:00Z,27.1690,-82.9260,3.0,3.65,234.54,5.19,'1111122,1111122,1111122' 
COMPS,ioos:station:USF.COMPS:C10:1,2019-03-04T16:05:00Z,27.1690,-82.9260,3.0,3.44,236.9,5.35,'1111122,1111122,1111122' 
COMPS,ioos:station:USF.COMPS:C10:1,2019-03-04T16:35:00Z,27.1690,-82.9260,3.0,4.15,245.14,4.97,'1111122,1111122,1111122' 
COMPS,ioos:station:USF.COMPS:C10:1,2019-03-04T17:05:00Z,27.1690,-82.9260,3.0,3.33,260.87,4.31,'1111122,1111122,1111122' 
COMPS,ioos:station:USF.COMPS:C10:1,2019-03-04T17:35:00Z,27.1690,-82.9260,3.0,4.41,291.18,5.55,'1111122,1111122,1111122' 
COMPS,ioos:station:USF.COMPS:C10:1,2019-03-04T18:05:00Z,27.1690,-82.9260,3.0,6.43,318.29,7.63,'1111122,1111122,1111122' 
COMPS,ioos:station:USF.COMPS:C10:1,2019-03-04T18:35:00Z,27.1690,-82.9260,3.0,7.07,334.28,8.35,'1111122,1111122,1111122' 
COMPS,ioos:station:USF.COMPS:C10:1,2019-03-04T19:05:00Z,27.1690,-82.9260,3.0,6.5,337.96,7.92,'1111122,1111122,1111122' 
COMPS,ioos:station:USF.COMPS:C10:1,2019-03-04T19:35:00Z,27.1690,-82.9260,3.0,6.42,338.25,7.72,'1111122,1111122,1111122' 
COMPS,ioos:station:USF.COMPS:C10:1,2019-03-04T20:05:00Z,27.1690,-82.9260,3.0,6.07,338.03,7.73,'1111122,1111122,1111122' 
COMPS,ioos:station:USF.COMPS:C10:1,2019-03-04T20:35:00Z,27.1690,-82.9260,3.0,5.3,332.99,6.49,'1111122,1111122,1111122' 
COMPS,ioos:station:USF.COMPS:C10:1,2019-03-04T21:05:00Z,27.1690,-82.9260,3.0,5.32,339.49,6.64,'1111122,1111122,1111122' 
COMPS,ioos:station:USF.COMPS:C10:1,2019-03-04T21:35:00Z,27.1690,-82.9260,3.0,5.15,331.25,6.28,'1111122,1111122,1111122' 
COMPS,ioos:station:USF.COMPS:C10:1,2019-03-04T22:05:00Z,27.1690,-82.9260,3.0,5.75,332.76,7.12,'1111122,1111122,1111122' 
COMPS,ioos:station:USF.COMPS:C10:1,2019-03-04T22:35:00Z,27.1690,-82.9260,3.0,5.77,326.43,7.38,'1111122,1111122,1111122' 
COMPS,ioos:station:USF.COMPS:C10:1,2019-03-04T23:05:00Z,27.1690,-82.9260,3.0,6.3,329.1,7.79,'1111122,1111122,1111122' 
COMPS,ioos:station:USF.COMPS:C10:1,2019-03-04T23:35:00Z,27.1690,-82.9260,3.0,7.4,335.89,9.14,'1111122,1111122,1111122' 
COMPS,ioos:station:USF.COMPS:C10:1,2019-03-05T00:05:00Z,27.1690,-82.9260,3.0,-99.0,-99.0,-99.0,'1111122,1111122,1111122' 
COMPS,ioos:station:USF.COMPS:C10:1,2019-03-05T00:35:00Z,27.1690,-82.9260,3.0,-99.0,-99.0,-99.0,'1111122,1111122,1111122' 
COMPS,ioos:station:USF.COMPS:C10:1,2019-03-05T01:05:00Z,27.1690,-82.9260,3.0,-99.0,-99.0,-99.0,'1111122,1111122,1111122' 
COMPS,ioos:station:USF.COMPS:C10:1,2019-03-05T01:35:00Z,27.1690,-82.9260,3.0,-99.0,-99.0,-99.0,'1111122,1111122,1111122' 
COMPS,ioos:station:USF.COMPS:C10:1,2019-03-05T02:05:00Z,27.1690,-82.9260,3.0,6.71,354.56,8.62,'1111122,1111122,1111122' 